Simultaneous Nadir Overpasses (SNOs) Predictions

Prediction of SNOs between GOES-15 and TERRA Satellite Orbit:

Table of predicted SNOs for the next 14.0 days since TLE Epoch: 3/28/2025
Index Date Time (GOES-15) GOES-15 Lat,Lon TERRA Lat,Lon Distance(km) Time Diff (sec)
1 03/30/2025 17:12:01 0.09, 61.26 0.58, 63.56 261.89 80
2 03/31/2025 05:31:32 -0.09, 61.31 0.45, 58.81 283.75 80
3 04/02/2025 05:15:17 -0.10, 61.32 -0.52, 63.37 232.98 80
4 04/02/2025 17:34:58 0.11, 61.27 -0.43, 58.57 305.90 80
5 04/04/2025 17:13:22 0.11, 61.29 0.52, 63.14 210.28 80
6 04/05/2025 05:32:52 -0.12, 61.35 0.47, 58.39 335.82 80
7 04/07/2025 05:16:35 -0.12, 61.36 -0.47, 62.95 180.99 80
8 04/07/2025 17:36:15 0.13, 61.31 -0.52, 58.17 357.39 80
9 04/09/2025 17:14:37 0.12, 61.33 0.41, 62.74 159.80 80
10 04/10/2025 05:34:07 -0.13, 61.39 0.61, 58.00 386.32 80
